Location: Kellogg
(38.0159°N, 90.0546°W)
Time: 10:50:20
(UTC+00:00)

Transit 4A - Visible Passes

Search period start: 07 September 2024 00:00
Search period end: 17 September 2024 00:00
Orbit: 867 x 975 km, 66.8° (Epoch: 06 September)

Date Brightness Start Highest point End Pass type
(mag) Time Alt. Az. Time Alt. Az. Time Alt. Az.
07 Sep 10.3 08:48:21 10° ESE 08:50:27 12° ESE 08:52:32 10° E visible
07 Sep 7.8 10:30:03 10° SSW 10:35:52 85° WNW 10:41:50 10° NNE visible
08 Sep 9.9 08:55:48 12° SE 08:59:07 20° ESE 09:03:12 10° ENE visible
08 Sep 7.9 10:39:20 11° SW 10:44:53 57° WNW 10:50:45 10° NNE visible
09 Sep 9.3 09:05:21 22° SSE 09:07:51 30° ESE 09:12:56 10° NE visible
09 Sep 8.4 10:48:54 11° WSW 10:53:59 39° NW 10:59:32 10° NNE visible
10 Sep 8.5 09:14:49 36° SSE 09:16:39 47° ESE 09:22:18 10° NE visible
10 Sep 8.9 10:58:21 10° WSW 11:03:11 27° NW 11:08:12 10° N visible
11 Sep 7.9 09:24:12 53° S 09:25:32 73° ESE 09:31:27 10° NNE visible
11 Sep 9.3 11:08:20 10° W 11:12:28 19° NW 11:16:41 10° N visible
12 Sep 10.2 07:49:58 13° E 07:49:58 13° E 07:51:52 10° ENE visible
12 Sep 7.7 09:33:30 61° SW 09:34:29 76° WNW 09:40:27 10° NNE visible
13 Sep 9.9 07:59:13 20° E 07:59:13 20° E 08:02:06 10° ENE visible
13 Sep 8.0 09:42:43 48° W 09:43:31 51° WNW 09:49:20 10° NNE visible
14 Sep 9.5 08:08:23 27° ENE 08:08:23 27° ENE 08:11:41 10° NE visible
14 Sep 8.5 09:51:53 34° WNW 09:52:39 35° NW 09:58:05 10° NNE visible
15 Sep 9.2 08:17:29 34° NE 08:17:29 34° NE 08:20:59 10° NE visible
15 Sep 9.0 10:00:59 24° WNW 10:01:52 25° NW 10:06:42 10° N visible
16 Sep 9.0 08:26:32 38° NNE 08:26:32 38° NNE 08:30:06 10° NNE visible
16 Sep 9.4 10:10:02 17° WNW 10:11:11 18° NW 10:15:07 10° N visible
